Hourly Weather Golanovo

Today, 15 May, Saturday

Time Temperature Precipitation Wind Pressure Humidity
00:00 +12°C° 0 mm 2 mps 736 mmHg 95%
01:00 +12°C° 0 mm 2 mps 735 mmHg 96%
02:00 +12°C° 0 mm 2 mps 735 mmHg 97%
03:00 +12°C° 0.1 mm 2 mps 735 mmHg 98%
04:00 +12°C° 0.1 mm 2 mps 734 mmHg 98%
05:00 +12°C° 0.1 mm 1 mps 734 mmHg 99%
06:00 +12°C° 0.9 mm 1 mps 734 mmHg 98%
07:00 +13°C° 0.9 mm 1 mps 734 mmHg 96%
08:00 +14°C° 0.9 mm 1 mps 734 mmHg 95%
09:00 +14°C° 0.4 mm 2 mps 734 mmHg 92%
10:00 +15°C° 0.4 mm 2 mps 734 mmHg 88%
11:00 +16°C° 0.4 mm 2 mps 734 mmHg 84%
12:00 +16°C° 0.2 mm 2 mps 734 mmHg 82%
13:00 +17°C° 0.2 mm 2 mps 734 mmHg 80%
14:00 +18°C° 0.2 mm 2 mps 734 mmHg 78%
15:00 +17°C° 0.5 mm 2 mps 734 mmHg 79%
16:00 +17°C° 0.5 mm 2 mps 734 mmHg 80%
17:00 +17°C° 0.5 mm 2 mps 734 mmHg 81%
18:00 +16°C° 0.2 mm 2 mps 734 mmHg 86%
19:00 +15°C° 0.2 mm 2 mps 734 mmHg 90%
20:00 +13°C° 0.2 mm 2 mps 734 mmHg 94%
21:00 +13°C° 0 mm 2 mps 734 mmHg 95%
22:00 +12°C° 0 mm 2 mps 734 mmHg 96%
23:00 +10°C° 0 mm 2 mps 734 mmHg 96%

Tomorrow, 16 May, Sunday

Time Temperature Precipitation Wind Pressure Humidity
00:00 +10°C° 0 mm 2 mps 734 mmHg 97%
01:00 +10°C° 0 mm 2 mps 734 mmHg 97%
02:00 +10°C° 0 mm 2 mps 735 mmHg 97%
03:00 +11°C° 0 mm 1 mps 735 mmHg 97%
04:00 +11°C° 0 mm 1 mps 735 mmHg 97%
05:00 +11°C° 0 mm 1 mps 736 mmHg 97%
06:00 +13°C° 0 mm 1 mps 736 mmHg 93%
07:00 +14°C° 0 mm 2 mps 737 mmHg 88%
08:00 +16°C° 0 mm 2 mps 737 mmHg 84%
09:00 +17°C° 0.1 mm 2 mps 737 mmHg 74%
10:00 +18°C° 0.1 mm 2 mps 738 mmHg 64%
11:00 +20°C° 0.1 mm 3 mps 738 mmHg 54%
12:00 +20°C° 0 mm 2 mps 738 mmHg 51%
13:00 +21°C° 0 mm 2 mps 738 mmHg 49%
14:00 +21°C° 0 mm 2 mps 738 mmHg 46%
15:00 +21°C° 0 mm 2 mps 738 mmHg 49%
16:00 +22°C° 0 mm 1 mps 738 mmHg 53%
17:00 +21°C° 0 mm 1 mps 738 mmHg 57%
18:00 +19°C° 0 mm 1 mps 738 mmHg 65%
19:00 +18°C° 0 mm 1 mps 738 mmHg 73%
20:00 +15°C° 0 mm 2 mps 739 mmHg 81%
21:00 +14°C° 0 mm 2 mps 739 mmHg 85%
22:00 +13°C° 0 mm 2 mps 739 mmHg 88%
23:00 +13°C° 0 mm 1 mps 739 mmHg 92%

Day after tomorrow, 17 May, Monday

Time Temperature Precipitation Wind Pressure Humidity
00:00 +12°C° 0 mm 2 mps 739 mmHg 93%
01:00 +12°C° 0 mm 2 mps 739 mmHg 94%
02:00 +12°C° 0 mm 2 mps 739 mmHg 95%
03:00 +12°C° 0 mm 2 mps 739 mmHg 94%
04:00 +12°C° 0 mm 2 mps 739 mmHg 93%
05:00 +13°C° 0 mm 2 mps 739 mmHg 92%
06:00 +13°C° 0 mm 3 mps 739 mmHg 85%
07:00 +16°C° 0 mm 3 mps 739 mmHg 78%
08:00 +18°C° 0 mm 4 mps 739 mmHg 71%
09:00 +19°C° 0 mm 4 mps 739 mmHg 66%
10:00 +20°C° 0 mm 4 mps 739 mmHg 61%
11:00 +22°C° 0 mm 4 mps 738 mmHg 56%
12:00 +22°C° 0 mm 4 mps 738 mmHg 54%
13:00 +23°C° 0 mm 4 mps 737 mmHg 51%
14:00 +24°C° 0 mm 3 mps 737 mmHg 49%
15:00 +22°C° 0.4 mm 3 mps 736 mmHg 58%
16:00 +21°C° 0.4 mm 3 mps 736 mmHg 68%
17:00 +20°C° 0.4 mm 3 mps 735 mmHg 78%
18:00 +19°C° 1.2 mm 3 mps 735 mmHg 82%
19:00 +19°C° 1.2 mm 3 mps 734 mmHg 87%
20:00 +18°C° 1.2 mm 2 mps 734 mmHg 92%
21:00 +17°C° 0.5 mm 3 mps 733 mmHg 92%
22:00 +17°C° 0.5 mm 3 mps 733 mmHg 93%
23:00 +17°C° 0.5 mm 3 mps 732 mmHg 94%

18 May, Tuesday

Time Temperature Precipitation Wind Pressure Humidity
00:00 +17°C° 0 mm 4 mps 732 mmHg 94%
01:00 +17°C° 0 mm 4 mps 732 mmHg 94%
02:00 +17°C° 0 mm 4 mps 731 mmHg 94%
03:00 +17°C° 0 mm 4 mps 731 mmHg 94%
04:00 +17°C° 0 mm 4 mps 731 mmHg 94%
05:00 +15°C° 0 mm 4 mps 731 mmHg 95%
06:00 +17°C° 0.3 mm 4 mps 730 mmHg 93%
07:00 +18°C° 0.3 mm 4 mps 730 mmHg 92%
08:00 +17°C° 0.3 mm 5 mps 730 mmHg 91%
09:00 +17°C° 0.1 mm 5 mps 730 mmHg 90%
10:00 +19°C° 0.1 mm 4 mps 731 mmHg 89%
11:00 +19°C° 0.1 mm 4 mps 731 mmHg 88%
12:00 +19°C° 0.5 mm 4 mps 731 mmHg 88%
13:00 +17°C° 0.5 mm 5 mps 731 mmHg 87%
14:00 +17°C° 0.5 mm 5 mps 731 mmHg 87%
15:00 +18°C° 0.3 mm 4 mps 731 mmHg 87%
16:00 +17°C° 0.3 mm 4 mps 731 mmHg 86%
17:00 +17°C° 0.3 mm 4 mps 732 mmHg 86%
18:00 +16°C° 0 mm 3 mps 732 mmHg 89%
19:00 +15°C° 0 mm 2 mps 732 mmHg 92%
20:00 +14°C° 0 mm 1 mps 732 mmHg 95%
21:00 +13°C° 0 mm 1 mps 733 mmHg 95%
22:00 +12°C° 0 mm 1 mps 733 mmHg 96%
23:00 +11°C° 0 mm 0 mps 733 mmHg 96%

19 May, Wednesday

Time Temperature Precipitation Wind Pressure Humidity
00:00 +12°C° 0.2 mm 1 mps 733 mmHg 97%
01:00 +12°C° 0.2 mm 1 mps 732 mmHg 97%
02:00 +12°C° 0.2 mm 1 mps 732 mmHg 97%
03:00 +12°C° 0.5 mm 1 mps 732 mmHg 97%
04:00 +13°C° 0.5 mm 2 mps 731 mmHg 98%
05:00 +13°C° 0.5 mm 2 mps 731 mmHg 98%
06:00 +13°C° 1 mm 2 mps 731 mmHg 98%
07:00 +13°C° 1 mm 2 mps 731 mmHg 97%
08:00 +12°C° 1 mm 3 mps 731 mmHg 97%
09:00 +11°C° 0.5 mm 3 mps 731 mmHg 97%
10:00 +11°C° 0.5 mm 3 mps 732 mmHg 96%
11:00 +11°C° 0.5 mm 4 mps 732 mmHg 95%
12:00 +11°C° 0.2 mm 4 mps 733 mmHg 94%
13:00 +11°C° 0.2 mm 4 mps 733 mmHg 93%
14:00 +11°C° 0.2 mm 3 mps 734 mmHg 92%
15:00 +11°C° 0.1 mm 3 mps 734 mmHg 92%
16:00 +11°C° 0.1 mm 3 mps 734 mmHg 91%
17:00 +11°C° 0.1 mm 3 mps 734 mmHg 90%
18:00 +10°C° 0.1 mm 3 mps 735 mmHg 92%
19:00 +9°C° 0.1 mm 2 mps 735 mmHg 94%
20:00 +9°C° 0.1 mm 2 mps 735 mmHg 95%
21:00 +8°C° 0 mm 2 mps 735 mmHg 96%
22:00 +8°C° 0 mm 2 mps 735 mmHg 96%
23:00 +8°C° 0 mm 3 mps 735 mmHg 96%

20 May, Thursday

Time Temperature Precipitation Wind Pressure Humidity
00:00 +7°C° 0 mm 2 mps 736 mmHg 97%
01:00 +7°C° 0 mm 2 mps 736 mmHg 97%
02:00 +6°C° 0 mm 2 mps 737 mmHg 98%
03:00 +6°C° 0 mm 2 mps 737 mmHg 97%
04:00 +6°C° 0 mm 2 mps 737 mmHg 97%
05:00 +6°C° 0 mm 2 mps 737 mmHg 97%
06:00 +8°C° 0 mm 3 mps 738 mmHg 89%
07:00 +9°C° 0 mm 3 mps 738 mmHg 82%
08:00 +10°C° 0 mm 3 mps 738 mmHg 74%
09:00 +12°C° 0 mm 4 mps 739 mmHg 65%
10:00 +13°C° 0 mm 4 mps 739 mmHg 56%
11:00 +14°C° 0 mm 5 mps 739 mmHg 47%
12:00 +15°C° 0 mm 5 mps 739 mmHg 45%
13:00 +16°C° 0 mm 5 mps 739 mmHg 43%
14:00 +16°C° 0 mm 5 mps 739 mmHg 41%
15:00 +17°C° 0 mm 4 mps 738 mmHg 44%
16:00 +17°C° 0 mm 4 mps 738 mmHg 47%
17:00 +17°C° 0 mm 3 mps 738 mmHg 50%
18:00 +14°C° 0 mm 3 mps 738 mmHg 59%
19:00 +13°C° 0 mm 2 mps 739 mmHg 69%
20:00 +10°C° 0 mm 2 mps 739 mmHg 78%
21:00 +9°C° 0 mm 2 mps 739 mmHg 81%
22:00 +8°C° 0 mm 2 mps 739 mmHg 83%
23:00 +7°C° 0 mm 2 mps 739 mmHg 86%
Show more